Hourly Data Report for April 17, 2017

KUGAARUK CLIMATE
NUNAVUT

68°32'15.060" N
89°47'47.020" W
15.80 m
2303094
71407
NBB

Download Data

Hourly Data (April 2017)
Hourly Data Report for April 17, 2017
TIME
LST
Temp Definition
°C
Dew Point Definition
°C
Rel Hum Definition
%
Precip. Amount Definition
mm

Wind Dir Definition
10's deg

Wind Spd Definition
km/h
Visibility Definition
km
Stn Press Definition
kPa
Hmdx Definition


Wind Chill Definition


Weather Definition


00:00 -25.1 -28.1 77 0.0 5 5   101.87   -30 LegendNANA
01:00 -25.5 -28.6 75 0.0 10 7   101.83   -32 LegendNANA
02:00 -25.7 -28.8 75 0.0 11 10   101.80   -34 LegendNANA
03:00 -25.9 -28.9 76 0.0 7 7   101.75   -33 LegendNANA
04:00 -25.6 -28.7 75 0.0 8 7   101.72   -32 LegendNANA
05:00 -25.5 -29.1 72 0.0 6 6   101.68   -31 LegendNANA
06:00 -25.5 -29.5 69 0.0 6 9   101.63   -33 LegendNANA
07:00 -25.2 -29.7 66 0.0 5 9   101.58   -33 LegendNANA
08:00 -24.8 -29.5 65 0.0 5 11   101.53   -33 LegendNANA
09:00 -24.0 -30.5 55 0.0 5 6   101.48   -30 LegendNANA
10:00 -23.3 -30.3 52 0.0 8 6   101.42   -29 LegendNANA
11:00 -22.8 -29.3 55 0.0 7 6   101.38   -28 LegendNANA
12:00 -21.9 -29.0 53 0.0 6 4   101.33   -26 LegendNANA
13:00 -21.8 -28.2 56 0.0 1 7   101.29   -28 LegendNANA
14:00 -21.6 -27.6 58 0.0 4 6   101.25   -27 LegendNANA
15:00 -21.4 -26.9 61 0.0 1 9   101.22   -28 LegendNANA
16:00 -21.6 -26.6 64 0.0 2 8   101.18   -28 LegendNANA
17:00 -22.3 -26.2 71 0.0 15 2   101.14   -24 LegendNANA
18:00 -22.2 -25.6 74 0.0 27 3   101.10   -25 LegendNANA
19:00 -23.2 -26.3 76 0.0 22 6   101.06   -29 LegendNANA
20:00 -22.5 -25.2 79 0.0 23 8   101.01   -29 LegendNANA
21:00 -22.8 -25.4 79 0.0 24 14   100.95   -32 LegendNANA
22:00 -24.3 -27.2 77 0.2 23 15   100.92   -34 LegendNANA
23:00 -24.9 -27.9 77 0.0 24 14   100.91   -35 LegendNANA

Notes on Data Quality.

Legend

  • E = Estimated
  • M = Missing
  • NA = Not Available*
  • [empty] = Indicates an unobserved value
Date modified: